Regional Weather Roundup
Issued by NWS

Home | Current Version | Previous Version | Graphics & Text | Print | Product List | Glossary On
Versions: 1 2 3 4 5 6 7 8 9 10 11 12 13 14 15 16 17 18 19 20 21 22 23 24 25 26 27 28 29 30 31 32 33 34 35 36 37 38 39 40 41 42 43 44 45 46 47 48 49 50
571
ASUS43 KFSD 120910
RWRSD

WEATHER ROUNDUP FOR SOUTH DAKOTA
NATIONAL WEATHER SERVICE SIOUX FALLS SD
300 AM CST FRI FEB 12 2016

NOTE: "FAIR" INDICATES FEW OR NO CLOUDS BELOW 12,000 FEET WITH NO
SIGNIFICANT WEATHER AND/OR OBSTRUCTIONS TO VISIBILITY.


SDZ001>005-009-010-012>017-121000-
NORTHWEST AND NORTH CENTRAL SOUTH DAKOTA

CITY           SKY/WX    TMP DP  RH WIND       PRES   REMARKS
BUFFALO          N/A     28  22  78 NW12      30.22R WCI  18
FAITH            N/A     25  20  81 NE8       30.29R WCI  16
MOBRIDGE       CLOUDY    21  16  81 N7        30.31R WCI  12
$$

SDZ012>016-024>037-041>051-057-063-072>074-121000-
SOUTHWEST AND SOUTH CENTRAL SOUTH DAKOTA

CITY           SKY/WX    TMP DP  RH WIND       PRES   REMARKS
RAPID CTY ARPT CLOUDY    30  28  92 N5        30.26R WCI  25
PIERRE         CLOUDY    22  17  81 N13       30.32R WCI  10
CUSTER         CLEAR     32  24  72 NW9       30.19S WCI  24
ELLSWORTH AFB  CLOUDY    31  29  92 CALM      30.25
PHILIP         CLOUDY    28  24  85 N8        30.31R WCI  20
PINE RIDGE     CLOUDY    33  29  85 NW5       30.25S WCI  29
SPEARFISH      CLOUDY    28  28 100 W6        30.26R WCI  22
WINNER         CLOUDY    29  26  89 N10       30.28R FOG     WCI  20
$$

SDZ004>011-016>023-039-040-121000-
NORTHEAST SOUTH DAKOTA

CITY           SKY/WX    TMP DP  RH WIND       PRES   REMARKS
ABERDEEN       CLOUDY    15   9  76 N8        30.36R WCI   4
WATERTOWN      CLOUDY    11   6  81 N10       30.27R WCI  -3
BROOKINGS      FLURRIES  14  10  84 NW9       30.27R WCI   2
SISSETON         N/A     11   7  84 N16       30.33R WCI  -6
$$

SDZ017-020-022-023-036>040-048>070-121000-
SOUTHEAST SOUTH DAKOTA

CITY           SKY/WX    TMP DP  RH WIND       PRES   REMARKS
SIOUX FALLS    CLOUDY    18  14  84 N8        30.27R WCI   8
HURON          CLOUDY    15  11  83 N15       30.34R WCI   0
CHAMBERLAIN    CLOUDY    21  21  98 NE9       30.30R FOG     WCI  11
MITCHELL       CLOUDY    20  15  81 N13       30.33R WCI   7
YANKTON        CLOUDY    19  18  93 NW9       30.31R WCI   9
$$

ABBREVIATIONS USED IN REMARKS
   TC - TEMPERATURE IN CELSIUS
  WCI - WIND CHILL INDEX
   HX - HEAT INDEX
  VSB - VISIBILITY





USA.gov is the U.S. government's official web portal to all federal, state and local government web resources and services.